| time (UTC) | temp C | wind direction | speed KPH | gust KPH | rain 1hr cm | rain 24hr cm | rain mn cm | humidity % | barometer mb |
| 20260906140044 | 26 | 163 | 3.2 | 11.3 | 0.00 | 0.00 | 0.00 | 83 | 1016.8 |
| 20260906135518 | 26 | 0 | 1.6 | 11.3 | 0.00 | 0.00 | 0.00 | 84 | 1016.8 |
| 20260906135018 | 26 | 163 | 3.2 | 11.3 | 0.00 | 0.00 | 0.00 | 84 | 1016.8 |
| 20260906134017 | 26 | 163 | 3.2 | 11.3 | 0.00 | 0.00 | 0.00 | 86 | 1016.7 |
| 20260906132520 | 25 | 163 | 1.6 | 9.7 | 0.00 | 0.00 | 0.00 | 90 | 1016.7 |
| 20260906132019 | 25 | 163 | 1.6 | 9.7 | 0.00 | 0.00 | 0.00 | 91 | 1016.7 |
| 20260906131020 | 24 | 163 | 0.0 | 8.0 | 0.00 | 0.00 | 0.00 | 94 | 1016.7 |
| 20260906130523 | 23 | 163 | 1.6 | 9.7 | 0.00 | 0.00 | 0.00 | 94 | 1016.6 |
| 20260906130046 | 23 | 0 | 1.6 | 9.7 | 0.00 | 0.00 | 0.00 | 95 | 1016.6 |
| 20260906125517 | 23 | 163 | 0.0 | 3.2 | 0.00 | 0.00 | 0.00 | 96 | 1016.4 |
| 20260906125020 | 23 | 163 | 0.0 | 3.2 | 0.00 | 0.00 | 0.00 | 96 | 1016.3 |
| 20260906124542 | 23 | 0 | 0.0 | 3.2 | 0.00 | 0.00 | 0.00 | 97 | 1016.3 |
| 20260906124018 | 23 | 0 | 0.0 | 1.6 | 0.00 | 0.00 | 0.00 | 97 | 1016.2 |
| 20260906123515 | 22 | 0 | 0.0 | 3.2 | 0.00 | 0.00 | 0.00 | 97 | 1016.2 |
| 20260906122020 | 22 | 0 | 0.0 | 0.0 | 0.00 | 0.00 | 0.00 | 96 | 1016.1 |
| 20260906120523 | 22 | 0 | 0.0 | 0.0 | 0.00 | 0.00 | 0.00 | 96 | 1016.1 |
| 20260906120044 | 22 | 0 | 0.0 | 0.0 | 0.00 | 0.00 | 0.00 | 96 | 1016.1 |
| 20260906115519 | 22 | 0 | 0.0 | 0.0 | 0.00 | 0.00 | 0.00 | 96 | 1015.9 |
| 20260906115019 | 22 | 0 | 0.0 | 0.0 | 0.00 | 0.00 | 0.00 | 96 | 1015.9 |
| 20260906112018 | 22 | 0 | 0.0 | 0.0 | 0.00 | 0.00 | 0.00 | 96 | 1015.7 |
| 20260906111017 | 22 | 0 | 0.0 | 0.0 | 0.00 | 0.00 | 0.00 | 96 | 1015.7 |
| 20260906110520 | 22 | 0 | 0.0 | 0.0 | 0.00 | 0.00 | 0.00 | 96 | 1015.5 |
| 20260906110041 | 22 | 0 | 0.0 | 0.0 | 0.00 | 0.00 | 0.00 | 96 | 1015.6 |
| 20260906105517 | 22 | 0 | 0.0 | 0.0 | 0.00 | 0.00 | 0.00 | 96 | 1015.4 |
| 20260906105018 | 22 | 0 | 0.0 | 0.0 | 0.00 | 0.00 | 0.00 | 96 | 1015.3 |
| 20260906104537 | 22 | 0 | 0.0 | 0.0 | 0.00 | 0.00 | 0.00 | 96 | 1015.3 |
| 20260906102520 | 22 | 0 | 0.0 | 0.0 | 0.00 | 0.00 | 0.00 | 96 | 1015.2 |
| 20260906101017 | 22 | 192 | 0.0 | 1.6 | 0.00 | 0.00 | 0.00 | 96 | 1015.2 |
| 20260906100521 | 22 | 0 | 0.0 | 1.6 | 0.00 | 0.00 | 0.00 | 95 | 1015.0 |
| 20260906100036 | 22 | 0 | 0.0 | 3.2 | 0.00 | 0.00 | 0.00 | 95 | 1014.9 |
| 20260906095516 | 22 | 0 | 0.0 | 3.2 | 0.00 | 0.00 | 0.00 | 95 | 1014.9 |
| 20260906095018 | 22 | 0 | 0.0 | 0.0 | 0.00 | 0.00 | 0.00 | 95 | 1014.9 |
| 20260906094539 | 22 | 0 | 0.0 | 3.2 | 0.00 | 0.00 | 0.00 | 94 | 1014.9 |
| 20260906092517 | 22 | 0 | 0.0 | 0.0 | 0.00 | 0.00 | 0.00 | 94 | 1014.6 |
| 20260906092017 | 22 | 0 | 0.0 | 1.6 | 0.00 | 0.00 | 0.00 | 94 | 1014.6 |
| 20260906091538 | 22 | 0 | 0.0 | 1.6 | 0.00 | 0.00 | 0.00 | 94 | 1014.6 |
| 20260906091016 | 22 | 0 | 0.0 | 0.0 | 0.00 | 0.00 | 0.00 | 94 | 1014.7 |
| 20260906090515 | 22 | 0 | 0.0 | 0.0 | 0.00 | 0.00 | 0.00 | 94 | 1014.6 |
| 20260906085019 | 22 | 0 | 0.0 | 0.0 | 0.00 | 0.00 | 0.00 | 94 | 1014.3 |
| 20260906084018 | 22 | 0 | 0.0 | 0.0 | 0.00 | 0.00 | 0.00 | 94 | 1014.2 |
| 20260906083517 | 22 | 0 | 0.0 | 0.0 | 0.00 | 0.00 | 0.00 | 94 | 1014.2 |
| 20260906083042 | 22 | 0 | 0.0 | 0.0 | 0.00 | 0.00 | 0.00 | 93 | 1014.2 |
| 20260906082516 | 22 | 0 | 0.0 | 0.0 | 0.00 | 0.00 | 0.00 | 93 | 1014.2 |
| 20260906082017 | 22 | 0 | 0.0 | 0.0 | 0.00 | 0.00 | 0.00 | 94 | 1014.2 |
| 20260906081537 | 22 | 0 | 0.0 | 0.0 | 0.00 | 0.00 | 0.00 | 93 | 1014.2 |
| 20260906081020 | 22 | 0 | 0.0 | 0.0 | 0.00 | 0.00 | 0.00 | 93 | 1014.1 |
| 20260906075519 | 22 | 0 | 0.0 | 0.0 | 0.00 | 0.00 | 0.00 | 93 | 1014.1 |
| 20260906075018 | 22 | 0 | 0.0 | 0.0 | 0.00 | 0.00 | 0.00 | 93 | 1014.0 |
| 20260906074021 | 22 | 0 | 0.0 | 0.0 | 0.00 | 0.00 | 0.00 | 93 | 1014.0 |
| 20260906073518 | 22 | 0 | 0.0 | 0.0 | 0.00 | 0.00 | 0.00 | 93 | 1014.2 |
| 20260906073038 | 22 | 0 | 0.0 | 0.0 | 0.00 | 0.00 | 0.00 | 93 | 1014.3 |
| 20260906072518 | 22 | 0 | 0.0 | 0.0 | 0.00 | 0.00 | 0.00 | 92 | 1014.3 |
| 20260906072017 | 22 | 0 | 0.0 | 0.0 | 0.00 | 0.00 | 0.00 | 92 | 1014.3 |
| 20260906071537 | 22 | 0 | 0.0 | 0.0 | 0.00 | 0.00 | 0.00 | 92 | 1014.4 |
| 20260906070041 | 22 | 0 | 0.0 | 0.0 | 0.00 | 0.00 | 0.00 | 92 | 1014.4 |
| 20260906065524 | 22 | 0 | 0.0 | 0.0 | 0.00 | 0.00 | 0.00 | 92 | 1014.3 |
| 20260906065021 | 22 | 0 | 0.0 | 0.0 | 0.00 | 0.00 | 0.00 | 92 | 1014.4 |
| 20260906064536 | 22 | 0 | 0.0 | 0.0 | 0.00 | 0.00 | 0.00 | 92 | 1014.4 |
| 20260906064018 | 22 | 0 | 0.0 | 0.0 | 0.00 | 0.00 | 0.00 | 91 | 1014.6 |
| 20260906063521 | 22 | 0 | 0.0 | 0.0 | 0.00 | 0.00 | 0.00 | 92 | 1014.5 |
| 20260906061020 | 22 | 0 | 0.0 | 0.0 | 0.00 | 0.00 | 0.00 | 91 | 1014.6 |
| 20260906060518 | 22 | 0 | 0.0 | 0.0 | 0.00 | 0.00 | 0.00 | 91 | 1014.5 |
| 20260906060039 | 22 | 0 | 0.0 | 0.0 | 0.00 | 0.00 | 0.00 | 90 | 1014.4 |
| 20260906055517 | 22 | 0 | 0.0 | 0.0 | 0.00 | 0.00 | 0.00 | 90 | 1014.5 |
| 20260906055016 | 23 | 0 | 0.0 | 0.0 | 0.00 | 0.00 | 0.00 | 90 | 1014.5 |
| 20260906054542 | 23 | 0 | 0.0 | 0.0 | 0.00 | 0.00 | 0.00 | 90 | 1014.5 |
| 20260906051018 | 23 | 0 | 0.0 | 0.0 | 0.00 | 0.00 | 0.00 | 89 | 1014.5 |
| 20260906050519 | 23 | 0 | 0.0 | 0.0 | 0.00 | 0.00 | 0.00 | 89 | 1014.5 |
| 20260906050040 | 23 | 0 | 0.0 | 0.0 | 0.00 | 0.00 | 0.00 | 89 | 1014.4 |
| 20260906045520 | 23 | 0 | 0.0 | 0.0 | 0.00 | 0.00 | 0.00 | 89 | 1014.3 |
| 20260906045018 | 23 | 0 | 0.0 | 0.0 | 0.00 | 0.00 | 0.00 | 89 | 1014.4 |
| 20260906044537 | 23 | 0 | 0.0 | 0.0 | 0.00 | 0.00 | 0.00 | 89 | 1014.4 |
| 20260906044018 | 23 | 0 | 0.0 | 0.0 | 0.00 | 0.00 | 0.00 | 88 | 1014.3 |
| 20260906042519 | 23 | 0 | 0.0 | 0.0 | 0.00 | 0.00 | 0.00 | 88 | 1014.2 |
| 20260906042020 | 23 | 0 | 0.0 | 0.0 | 0.00 | 0.00 | 0.00 | 88 | 1014.2 |
| 20260906041549 | 23 | 0 | 0.0 | 0.0 | 0.00 | 0.00 | 0.00 | 88 | 1014.2 |
| 20260906041021 | 23 | 0 | 0.0 | 0.0 | 0.00 | 0.00 | 0.00 | 88 | 1014.2 |
| 20260906040516 | 23 | 0 | 0.0 | 0.0 | 0.00 | 0.00 | 0.00 | 88 | 1014.1 |
| 20260906040038 | 23 | 0 | 0.0 | 0.0 | 0.00 | 0.00 | 0.00 | 88 | 1014.0 |
| 20260906034023 | 24 | 0 | 0.0 | 0.0 | 0.00 | 0.00 | 0.00 | 87 | 1014.0 |
| 20260906033517 | 24 | 0 | 0.0 | 0.0 | 0.00 | 0.00 | 0.00 | 86 | 1013.9 |
| 20260906032519 | 24 | 0 | 0.0 | 0.0 | 0.00 | 0.00 | 0.00 | 86 | 1013.8 |
| 20260906032020 | 24 | 0 | 0.0 | 0.0 | 0.00 | 0.00 | 0.00 | 85 | 1013.7 |
| 20260906031541 | 24 | 0 | 0.0 | 0.0 | 0.00 | 0.00 | 0.00 | 85 | 1013.7 |
| 20260906031016 | 24 | 0 | 0.0 | 0.0 | 0.00 | 0.00 | 0.00 | 85 | 1013.8 |
| 20260906030516 | 24 | 0 | 0.0 | 0.0 | 0.00 | 0.00 | 0.00 | 85 | 1013.6 |
| 20260906030043 | 24 | 0 | 0.0 | 0.0 | 0.00 | 0.00 | 0.00 | 84 | 1013.7 |
| 20260906024020 | 25 | 0 | 0.0 | 0.0 | 0.00 | 0.00 | 0.00 | 83 | 1013.6 |
| 20260906023520 | 25 | 0 | 0.0 | 0.0 | 0.00 | 0.00 | 0.00 | 83 | 1013.6 |
| 20260906023102 | 25 | 0 | 0.0 | 0.0 | 0.00 | 0.00 | 0.00 | 83 | 1013.5 |
| 20260906022517 | 25 | 0 | 0.0 | 0.0 | 0.00 | 0.00 | 0.00 | 83 | 1013.4 |
| 20260906022017 | 25 | 0 | 0.0 | 0.0 | 0.00 | 0.00 | 0.00 | 83 | 1013.4 |
| 20260906021539 | 25 | 0 | 0.0 | 0.0 | 0.00 | 0.00 | 0.00 | 83 | 1013.2 |
| 20260906021020 | 25 | 0 | 0.0 | 0.0 | 0.00 | 0.00 | 0.00 | 83 | 1013.1 |
| 20260906020518 | 25 | 0 | 0.0 | 0.0 | 0.00 | 0.00 | 0.00 | 82 | 1013.1 |
| 20260906020035 | 25 | 0 | 0.0 | 0.0 | 0.00 | 0.00 | 0.00 | 82 | 1013.1 |
| 20260906014020 | 26 | 0 | 0.0 | 1.6 | 0.00 | 0.00 | 0.00 | 81 | 1012.8 |
| 20260906013526 | 26 | 0 | 0.0 | 3.2 | 0.00 | 0.00 | 0.00 | 80 | 1012.8 |
| 20260906013036 | 26 | 192 | 0.0 | 3.2 | 0.00 | 0.00 | 0.00 | 80 | 1012.7 |
| 20260906012516 | 26 | 0 | 0.0 | 0.0 | 0.00 | 0.00 | 0.00 | 79 | 1012.7 |
| 20260906010524 | 27 | 0 | 0.0 | 0.0 | 0.00 | 0.00 | 0.00 | 76 | 1012.4 |
| 20260906005517 | 27 | 0 | 0.0 | 0.0 | 0.00 | 0.00 | 0.00 | 75 | 1012.2 |
| 20260906005021 | 27 | 0 | 0.0 | 0.0 | 0.00 | 0.00 | 0.00 | 75 | 1012.2 |
| 20260906004545 | 28 | 0 | 0.0 | 0.0 | 0.00 | 0.00 | 0.00 | 74 | 1012.2 |
| 20260906004021 | 28 | 0 | 0.0 | 0.0 | 0.00 | 0.00 | 0.00 | 73 | 1012.2 |
| 20260906003516 | 28 | 0 | 0.0 | 0.0 | 0.00 | 0.00 | 0.00 | 73 | 1012.3 |
| 20260906003037 | 28 | 0 | 0.0 | 0.0 | 0.00 | 0.00 | 0.00 | 72 | 1012.1 |
| 20260906002018 | 29 | 0 | 0.0 | 1.6 | 0.00 | 0.00 | 0.00 | 70 | 1012.3 |
| 20260906001022 | 29 | 0 | 0.0 | 3.2 | 0.00 | 0.00 | 0.00 | 68 | 1012.5 |
| 20260906000520 | 30 | 0 | 0.0 | 3.2 | 0.00 | 0.00 | 0.00 | 68 | 1012.5 |
| 20260905235519 | 30 | 0 | 0.0 | 1.6 | 0.00 | 0.00 | 0.00 | 67 | 1012.5 |
| 20260905235022 | 30 | 0 | 0.0 | 3.2 | 0.00 | 0.00 | 0.00 | 67 | 1012.5 |
| 20260905234538 | 30 | 192 | 0.0 | 3.2 | 0.00 | 0.00 | 0.00 | 66 | 1012.6 |
| 20260905234016 | 30 | 192 | 0.0 | 3.2 | 0.00 | 0.00 | 0.00 | 64 | 1012.4 |
| 20260905232522 | 30 | 0 | 0.0 | 3.2 | 0.00 | 0.00 | 0.00 | 64 | 1012.5 |
| 20260905231020 | 30 | 192 | 0.0 | 6.4 | 0.00 | 0.00 | 0.00 | 63 | 1012.6 |
| 20260905230517 | 30 | 192 | 1.6 | 6.4 | 0.00 | 0.00 | 0.00 | 63 | 1012.4 |
| 20260905230044 | 30 | 192 | 0.0 | 3.2 | 0.00 | 0.00 | 0.00 | 64 | 1012.6 |
| 20260905225519 | 30 | 0 | 0.0 | 3.2 | 0.00 | 0.00 | 0.00 | 64 | 1012.5 |
| 20260905225018 | 30 | 0 | 0.0 | 6.4 | 0.00 | 0.00 | 0.00 | 64 | 1012.6 |
| 20260905224021 | 30 | 192 | 0.0 | 3.2 | 0.00 | 0.00 | 0.00 | 65 | 1012.9 |
| 20260905223518 | 30 | 0 | 0.0 | 6.4 | 0.00 | 0.00 | 0.00 | 66 | 1012.7 |
| 20260905223040 | 30 | 0 | 0.0 | 6.4 | 0.00 | 0.00 | 0.00 | 67 | 1012.5 |
| 20260905222517 | 30 | 192 | 0.0 | 6.4 | 0.00 | 0.00 | 0.00 | 65 | 1012.7 |
| 20260905222020 | 30 | 192 | 0.0 | 4.8 | 0.00 | 0.00 | 0.00 | 66 | 1012.8 |
| 20260905221541 | 31 | 0 | 0.0 | 3.2 | 0.00 | 0.00 | 0.00 | 68 | 1012.8 |
| 20260905221022 | 31 | 192 | 0.0 | 3.2 | 0.00 | 0.00 | 0.00 | 67 | 1012.8 |
| 20260905220520 | 31 | 0 | 0.0 | 0.0 | 0.00 | 0.00 | 0.00 | 67 | 1012.5 |
| 20260905220039 | 31 | 0 | 0.0 | 1.6 | 0.00 | 0.00 | 0.00 | 66 | 1012.6 |
| 20260905215519 | 31 | 0 | 0.0 | 1.6 | 0.00 | 0.00 | 0.00 | 65 | 1012.7 |
| 20260905215016 | 31 | 0 | 0.0 | 9.7 | 0.00 | 0.00 | 0.00 | 64 | 1012.6 |
| 20260905214538 | 31 | 0 | 0.0 | 16.1 | 0.00 | 0.00 | 0.00 | 64 | 1012.5 |
| 20260905213520 | 31 | 192 | 4.8 | 16.1 | 0.00 | 0.00 | 0.00 | 64 | 1012.5 |
| 20260905212520 | 31 | 186 | 3.2 | 12.9 | 0.00 | 0.00 | 0.00 | 66 | 1012.7 |
| 20260905212019 | 31 | 186 | 3.2 | 16.1 | 0.00 | 0.00 | 0.00 | 65 | 1012.8 |
| 20260905211020 | 32 | 186 | 3.2 | 20.9 | 0.00 | 0.00 | 0.00 | 63 | 1012.7 |
| 20260905210518 | 33 | 186 | 8.0 | 20.9 | 0.00 | 0.00 | 0.00 | 60 | 1012.6 |
| 20260905210039 | 34 | 188 | 9.7 | 27.4 | 0.00 | 0.00 | 0.00 | 57 | 1012.8 |
| 20260905205518 | 35 | 188 | 11.3 | 27.4 | 0.00 | 0.00 | 0.00 | 54 | 1012.6 |
| 20260905205017 | 36 | 243 | 3.2 | 12.9 | 0.00 | 0.00 | 0.00 | 54 | 1012.4 |
| 20260905202526 | 35 | 243 | 3.2 | 11.3 | 0.00 | 0.00 | 0.00 | 51 | 1012.7 |
| 20260905202020 | 35 | 0 | 1.6 | 12.9 | 0.00 | 0.00 | 0.00 | 52 | 1012.8 |
| 20260905201019 | 36 | 243 | 4.8 | 17.7 | 0.00 | 0.00 | 0.00 | 49 | 1012.8 |
| 20260905200520 | 36 | 244 | 6.4 | 17.7 | 0.00 | 0.00 | 0.00 | 49 | 1012.7 |
| 20260905195517 | 37 | 244 | 0.0 | 4.8 | 0.00 | 0.00 | 0.00 | 44 | 1012.7 |
| 20260905195021 | 37 | 0 | 0.0 | 8.0 | 0.00 | 0.00 | 0.00 | 45 | 1012.8 |
| 20260905194538 | 37 | 244 | 3.2 | 8.0 | 0.00 | 0.00 | 0.00 | 42 | 1012.8 |
| 20260905194019 | 38 | 244 | 1.6 | 11.3 | 0.00 | 0.00 | 0.00 | 42 | 1012.8 |
| 20260905193520 | 38 | 244 | 3.2 | 14.5 | 0.00 | 0.00 | 0.00 | 42 | 1012.9 |
| 20260905192020 | 37 | 245 | 3.2 | 12.9 | 0.00 | 0.00 | 0.00 | 43 | 1013.2 |
| 20260905191020 | 38 | 245 | 4.8 | 12.9 | 0.00 | 0.00 | 0.00 | 43 | 1013.3 |
| 20260905190517 | 38 | 245 | 3.2 | 12.9 | 0.00 | 0.00 | 0.00 | 43 | 1013.2 |
| 20260905185517 | 37 | 244 | 0.0 | 6.4 | 0.00 | 0.00 | 0.00 | 46 | 1013.4 |
| 20260905185018 | 36 | 244 | 1.6 | 6.4 | 0.00 | 0.00 | 0.00 | 51 | 1013.5 |
| 20260905184542 | 36 | 0 | 0.0 | 4.8 | 0.00 | 0.00 | 0.00 | 48 | 1013.5 |
| 20260905184019 | 36 | 0 | 0.0 | 8.0 | 0.00 | 0.00 | 0.00 | 47 | 1013.6 |
| 20260905183516 | 37 | 244 | 1.6 | 14.5 | 0.00 | 0.00 | 0.00 | 46 | 1013.6 |
| 20260905182523 | 37 | 246 | 4.8 | 12.9 | 0.00 | 0.00 | 0.00 | 45 | 1013.7 |
| 20260905182024 | 37 | 247 | 1.6 | 12.9 | 0.00 | 0.00 | 0.00 | 46 | 1013.8 |
| 20260905181539 | 38 | 247 | 3.2 | 12.9 | 0.00 | 0.00 | 0.00 | 44 | 1013.7 |
| 20260905181018 | 38 | 246 | 3.2 | 11.3 | 0.00 | 0.00 | 0.00 | 44 | 1013.8 |
| 20260905180516 | 37 | 0 | 1.6 | 6.4 | 0.00 | 0.00 | 0.00 | 46 | 1013.9 |
| 20260905175520 | 37 | 246 | 3.2 | 8.0 | 0.00 | 0.00 | 0.00 | 46 | 1014.0 |
| 20260905175020 | 37 | 246 | 1.6 | 6.4 | 0.00 | 0.00 | 0.00 | 47 | 1013.9 |
| 20260905174020 | 38 | 246 | 0.0 | 12.9 | 0.00 | 0.00 | 0.00 | 44 | 1014.0 |
| 20260905173517 | 38 | 246 | 3.2 | 12.9 | 0.00 | 0.00 | 0.00 | 46 | 1014.2 |
| 20260905173037 | 38 | 246 | 1.6 | 11.3 | 0.00 | 0.00 | 0.00 | 44 | 1014.1 |
| 20260905172516 | 38 | 246 | 3.2 | 11.3 | 0.00 | 0.00 | 0.00 | 48 | 1014.3 |
| 20260905172019 | 37 | 246 | 3.2 | 11.3 | 0.00 | 0.00 | 0.00 | 46 | 1014.2 |
| 20260905171015 | 37 | 246 | 1.6 | 11.3 | 0.00 | 0.00 | 0.00 | 46 | 1014.4 |
| 20260905165020 | 37 | 246 | 3.2 | 8.0 | 0.00 | 0.00 | 0.00 | 48 | 1014.7 |
| 20260905164018 | 37 | 0 | 3.2 | 12.9 | 0.00 | 0.00 | 0.00 | 48 | 1014.7 |
| 20260905163523 | 37 | 246 | 4.8 | 12.9 | 0.00 | 0.00 | 0.00 | 51 | 1014.8 |
| 20260905161021 | 36 | 246 | 1.6 | 6.4 | 0.00 | 0.00 | 0.00 | 53 | 1015.2 |
| 20260905160521 | 36 | 0 | 1.6 | 6.4 | 0.00 | 0.00 | 0.00 | 53 | 1015.2 |
| 20260905155519 | 36 | 246 | 1.6 | 8.0 | 0.00 | 0.00 | 0.00 | 51 | 1015.3 |
| 20260905155020 | 35 | 246 | 1.6 | 6.4 | 0.00 | 0.00 | 0.00 | 54 | 1015.3 |
| 20260905154539 | 35 | 246 | 1.6 | 4.8 | 0.00 | 0.00 | 0.00 | 53 | 1015.3 |
| 20260905154019 | 35 | 0 | 0.0 | 11.3 | 0.00 | 0.00 | 0.00 | 53 | 1015.3 |
| 20260905152518 | 35 | 246 | 1.6 | 4.8 | 0.00 | 0.00 | 0.00 | 55 | 1015.3 |
| 20260905152018 | 35 | 0 | 1.6 | 4.8 | 0.00 | 0.00 | 0.00 | 54 | 1015.3 |
| 20260905151020 | 34 | 246 | 1.6 | 4.8 | 0.00 | 0.00 | 0.00 | 58 | 1015.4 |
| 20260905150517 | 34 | 246 | 0.0 | 11.3 | 0.00 | 0.00 | 0.00 | 57 | 1015.3 |
| 20260905150039 | 33 | 246 | 1.6 | 11.3 | 0.00 | 0.00 | 0.00 | 56 | 1015.3 |
| 20260905145516 | 33 | 0 | 1.6 | 4.8 | 0.00 | 0.00 | 0.00 | 58 | 1015.3 |
| 20260905145018 | 33 | 0 | 0.0 | 6.4 | 0.00 | 0.00 | 0.00 | 59 | 1015.3 |
| 20260905142518 | 32 | 246 | 0.0 | 4.8 | 0.00 | 0.00 | 0.00 | 69 | 1015.2 |
| 20260905142017 | 31 | 246 | 1.6 | 4.8 | 0.00 | 0.00 | 0.00 | 69 | 1015.2 |
| 20260905141537 | 31 | 246 | 0.0 | 3.2 | 0.00 | 0.00 | 0.00 | 73 | 1015.3 |